User: anonymous   Login
Location: Pine Mountain Observatory
(43.7910°N, 120.9377°W)
Time: 04:59:59
(UTC-08:00)
Language:

APEX - Orbit

View from above orbital plane
View from above orbital plane
View from above satellite
View from above satellite

Ground track
Ground track

The orbit data is extracted from the following two-line orbital elements,

1 23191U 94046A   17016.53920244  .00004561  00000-0  16094-3 0  9992
2 23191  69.9219 210.2707 0610556  96.5335 270.5637 14.35619525 94775
Epoch (UTC): 16 January 2017 12:56:27
Eccentricity: 0.0610556
inclination: 69.9219°
perigee height: 336 km
apogee height: 1209 km
right ascension of ascending node: 210.2707°
argument of perigee: 96.5335°
revolutions per day: 14.35619525
mean anomaly at epoch: 270.5637°
orbit number at epoch: 9477

The dashed part of the orbit path shows where the satellite is in the earth's shadow,  

DLR